{"data":{"norad_id":69079,"epoch":"2026-09-20T04:11:01.959936Z","epoch_age_seconds":51400,"freshness":"FRESH","line1":"1 69079U 26104G   26263.17432824  .00000057  00000+0  68956-4 0  9993","line2":"2 69079  88.9904 331.7787 0002019 113.0000 247.1364 13.51030874 17977","mean_motion":13.51030874,"eccentricity":0.0002019,"inclination_deg":88.9904,"raan_deg":331.7787,"arg_perigee_deg":113,"mean_anomaly_deg":247.1364,"bstar":6.8956e-5,"rev_number":1797,"period_min":106.58527704379,"perigee_km":1066.9646660698,"apogee_km":1069.9716052236,"semimajor_km":7446.6051356467,"source":"CELESTRAK","updated_at":"2026-09-20T09:00:24.670471Z"}}